Location: Praha
(50.0830°N, 14.4670°E)
Time: 20:03:42
(UTC+02:00)

ISS - Pass Details

Date: 28 April 2021
Orbit: 418 x 422 km, 51.6° (Epoch: 13 April)

Event Time Altitude Azimuth Distance (km) Brightness Sun altitude
Exits shadow 04:15:45 - 174° (S) 1,585 -1.2 -12.7°
Reaches altitude 10° 04:16:08 10° 168° (SSE) 1,499 -1.2 -12.7°
Maximum altitude 04:17:52 13° 137° (SE) 1,307 -1.2 -12.5°
Drops below altitude 10° 04:19:36 10° 106° (ESE) 1,505 -0.5 -12.2°
Sets 04:22:31 0° 79° (E) 2,375 1.2 -11.9°
